Stations météo

réclame
Mon MeteoGroup
Wittenberg, Allemagne (10474): Température de l'air & dewpoint: 02.07.2020 15:00:00 - 08.07.2020 15:00:00 (CEST)Wittenberg, Allemagne (10474): Température de l'air 5cm & Température de l'air -5cm: 02.07.2020 15:00:00 - 08.07.2020 15:00:00 (CEST)Wittenberg, Allemagne (10474): Température de l'air -20cm & Température de l'air -100cm: 02.07.2020 15:00:00 - 08.07.2020 15:00:00 (CEST)Wittenberg, Allemagne (10474): Vitesse du vent & gusts: 02.07.2020 15:00:00 - 08.07.2020 15:00:00 (CEST)Wittenberg, Allemagne (10474): Direction du vent: 02.07.2020 15:00:00 - 08.07.2020 15:00:00 (CEST)Wittenberg, Allemagne (10474): reduced air pressure: 02.07.2020 15:00:00 - 08.07.2020 15:00:00 (CEST)Wittenberg, Allemagne (10474): visibility: 02.07.2020 15:00:00 - 08.07.2020 15:00:00 (CEST)Wittenberg, Allemagne (10474): Ensoleillement: 02.07.2020 15:00:00 - 08.07.2020 15:00:00 (CEST)Wittenberg, Allemagne (10474): Quantités de précipitations: 02.07.2020 15:00:00 - 08.07.2020 15:00:00 (CEST)
Date & Time tt [°C] td [°C] tt 5cm [°C] tt -5cm [°C] tt -20cm [°C] tt -100cm [°C] ff [km/h] ff [knt] fx [km/h] fx [knt] dd ppp [hPa] vv [km] sd [min] rr [mm]
08.07.2020 15:00:00 14,9 11,3 15,7 18,4 18,4 19,5 9 5 15 8 NW 1016,0 41 0 0,0
08.07.2020 14:00:00 14,3 11,7 14,0 17,3 18,4 19,5 3 1 8 4 WSW 1015,9 9 0 0,1
08.07.2020 13:00:00 14,1 12,5 14,4 17,2 18,4 19,6 5 3 17 9 NNW 1015,8 18 0 0,0
08.07.2020 12:00:00 14,4 11,6 14,3 17,8 18,3 19,6 9 5 19 10 SW 1015,5 31 0 0,0
08.07.2020 11:00:00 14,0 12,3 14,3 16,9 18,3 19,6 10 6 20 11 SW 1015,6 23 0 0,3
08.07.2020 10:00:00 13,2 12,2 13,2 15,9 18,4 19,6 6 3 23 12 SW 1015,6 12 0 1,1
08.07.2020 09:00:00 13,3 11,8 13,0 16,3 18,4 19,6 10 5 19 10 SW 1015,6 12 0 0,1
08.07.2020 08:00:00 13,2 12,0 13,3 16,0 18,5 19,6 7 4 12 7 SW 1015,7 14 0 0,0
08.07.2020 07:00:00 12,8 11,9 12,7 15,4 18,8 19,6 4 2 12 7 SSW 1015,6 13 0 0,0
08.07.2020 06:00:00 12,3 11,5 12,2 15,1 19,1 19,6 5 3 9 5 SSW 1015,7 15 0 0,1
08.07.2020 05:00:00 12,3 11,4 12,1 15,2 19,5 19,6 7 4 10 6 S 1016,0 20 0 0,0
08.07.2020 04:00:00 12,4 11,2 12,0 15,6 19,9 19,6 6 3 12 7 SW 1016,4 26 0 0,0
08.07.2020 03:00:00 12,6 11,5 12,3 15,9 20,4 19,6 6 3 12 6 SW 1016,8 21 0 0,0
08.07.2020 02:00:00 12,8 11,2 12,4 16,5 20,9 19,6 6 4 12 7 WSW 1017,0 27 0 0,3
08.07.2020 01:00:00 12,8 11,7 12,6 17,1 21,5 19,6 5 3 10 5 W 1017,1 22 0 0,7
08.07.2020 00:00:00 13,2 11,1 12,6 17,9 22,2 19,6 6 3 13 7 WNW 1017,1 32 0 0,3
07.07.2020 23:00:00 14,0 10,2 13,1 19,1 22,9 19,6 11 6 40 22 NW 1016,9 51 0 0,1
07.07.2020 22:00:00 16,6 7,8 16,6 21,3 23,4 19,6 25 13 39 21 NW 1016,6 55 0 0,0
07.07.2020 21:00:00 18,6 5,5 18,4 22,9 23,9 19,6 8 4 20 11 W 1015,9 75 0 0,0
07.07.2020 20:00:00 19,6 5,0 19,7 25,0 24,2 19,7 10 5 27 14 WSW 1015,9 51 35 0,0
07.07.2020 19:00:00 20,9 4,4 22,7 26,9 24,3 19,7 11 6 25 14 W 1016,3 56 42 0,0
07.07.2020 18:00:00 20,6 3,6 22,7 28,7 24,1 19,7 17 9 35 19 WSW 1016,8 75 33 0,0
07.07.2020 17:00:00 20,2 4,6 22,7 29,2 23,7 19,7 17 9 31 17 W 1017,2 55 30 0,0
07.07.2020 16:00:00 19,7 3,8 24,5 30,3 22,8 19,8 16 9 31 17 WNW 1017,8 70 48 0,0
07.07.2020 15:00:00 20,5 3,9 25,1 29,5 21,8 19,8 12 6 32 17 SW 1018,3 53 45 0,0
07.07.2020 14:00:00 18,1 4,1 22,3 26,2 21,1 19,8 14 8 29 15 WNW 1018,8 74 19 0,0
07.07.2020 13:00:00 18,3 4,3 23,3 25,7 20,4 19,8 13 7 27 15 W 1019,1 65 26 0,0
07.07.2020 12:00:00 16,1 5,6 18,0 23,2 19,7 19,8 19 10 31 17 W 1019,4 71 16 0,0
07.07.2020 11:00:00 16,3 5,6 20,6 22,1 19,0 19,9 12 6 29 16 WNW 1019,6 35 22 0,0
07.07.2020 10:00:00 15,1 5,9 17,3 21,1 18,5 19,9 13 7 29 15 NW 1019,4 57 33 0,0
07.07.2020 09:00:00 15,5 8,2 20,3 19,7 18,0 19,9 13 7 31 17 NW 1019,7 44 54 0,0
07.07.2020 08:00:00 13,9 8,7 15,7 16,9 17,8 19,9 10 5 23 12 WNW 1019,8 48 54 0,0
07.07.2020 07:00:00 12,3 9,5 13,4 14,7 17,9 19,9 10 5 18 10 W 1020,0 48 9 0,0
07.07.2020 06:00:00 11,4 9,4 11,4 13,8 18,1 19,9 8 4 22 12 W 1019,8 44 0 0,0
07.07.2020 05:00:00 11,3 9,2 11,0 13,3 18,5 19,9 12 6 19 11 W 1019,4 52 0 0,0
07.07.2020 04:00:00 10,5 8,8 9,4 13,3 18,9 19,9 9 5 17 9 W 1019,0 52 0 0,0
07.07.2020 03:00:00 11,2 8,7 10,0 14,0 19,4 19,9 9 5 17 9 W 1018,7 56 0 0,0
07.07.2020 02:00:00 11,4 8,5 10,1 14,3 20,0 19,9 9 5 21 11 W 1018,2 59 0 0,0
07.07.2020 01:00:00 12,2 8,6 11,4 15,1 20,6 19,9 10 6 23 12 W 1017,7 59 0 0,0
07.07.2020 00:00:00 13,0 8,5 11,9 15,7 21,2 19,9 12 7 25 13 W 1017,4 64 0 0,0
06.07.2020 23:00:00 13,5 7,9 12,5 16,7 21,9 19,9 15 8 30 16 W 1016,7 75 0 0,0
06.07.2020 22:00:00 14,3 7,8 13,3 18,0 22,6 19,9 13 7 41 22 W 1016,2 75 0 0,0
06.07.2020 21:00:00 15,8 6,7 15,1 20,1 23,2 19,9 21 11 41 22 W 1015,5 75 46 0,0
06.07.2020 20:00:00 17,4 6,2 17,9 22,5 23,6 19,9 18 10 44 24 WNW 1014,6 75 35 0,0
06.07.2020 19:00:00 18,1 7,3 19,0 24,3 23,7 19,9 17 9 48 26 WNW 1014,0 64 48 0,0
06.07.2020 18:00:00 18,2 7,1 19,6 24,6 23,8 19,9 20 11 47 25 W 1013,6 75 36 0,0
06.07.2020 17:00:00 16,4 7,6 17,5 22,9 24,2 19,9 16 9 49 26 WNW 1013,5 74 1 0,0
06.07.2020 16:00:00 20,3 6,9 22,8 28,7 24,0 19,9 15 8 43 23 WNW 1012,0 52 28 0,0
06.07.2020 15:00:00 20,9 5,5 24,3 27,3 23,7 20,0 21 12 46 25 W 1011,8 49 26 0,0
06.07.2020 14:00:00 20,2 5,3 22,2 29,0 22,9 20,0 19 11 49 26 W 1011,4 46 41 0,0
06.07.2020 13:00:00 20,3 5,5 23,9 27,2 22,0 20,0 23 12 46 25 W 1011,1 59 46 0,0
06.07.2020 12:00:00 19,6 5,6 22,7 25,6 21,2 20,0 19 10 45 25 W 1010,8 40 42 0,0
06.07.2020 11:00:00 18,1 7,0 19,5 22,9 20,8 20,0 18 10 40 22 W 1010,8 57 39 0,0
06.07.2020 10:00:00 18,1 7,3 20,6 20,3 20,6 20,0 22 12 46 25 W 1010,6 40 45 0,0
06.07.2020 09:00:00 17,8 7,8 19,3 19,7 20,6 19,9 24 13 41 22 W 1010,2 47 57 0,0
06.07.2020 08:00:00 17,1 10,0 18,3 19,0 20,7 19,9 18 10 35 19 W 1010,0 52 60 0,0
06.07.2020 07:00:00 16,3 11,2 16,7 17,9 21,0 19,9 13 7 28 15 W 1009,4 66 36 0,0
06.07.2020 06:00:00 16,0 13,0 15,0 17,6 21,4 19,9 8 4 27 15 WNW 1009,3 54 0 0,0
06.07.2020 05:00:00 17,4 14,8 15,8 18,7 21,8 19,9 9 5 20 11 NW 1008,8 60 0 0,0
06.07.2020 04:00:00 18,3 16,1 17,2 19,2 22,2 19,9 9 5 18 10 WSW 1008,5 6 0 0,0
06.07.2020 03:00:00 17,9 16,5 17,2 19,1 22,7 19,9 8 4 16 9 WSW 1008,7 12 0 0,0
06.07.2020 02:00:00 18,2 17,4 17,5 20,2 23,1 19,9 7 4 27 15 SW 1008,9 53 0 1,4
06.07.2020 01:00:00 19,2 17,9 18,7 21,3 23,5 19,9 7 4 26 14 WSW 1009,2 3,9 0 1,7
06.07.2020 00:00:00 19,9 17,2 19,7 22,0 23,9 19,8 4 2 11 6 SSE 1009,1 75 0 0,0
05.07.2020 23:00:00 19,9 17,0 17,7 22,5 24,3 19,8 4 2 11 6 WSW 1009,3 42 0 0,0
05.07.2020 22:00:00 21,1 16,8 20,9 23,5 24,7 19,8 7 4 19 10 W 1009,5 75 0 0,0
05.07.2020 21:00:00 21,4 17,2 21,2 24,4 25,1 19,8 7 4 29 15 NW 1009,4 75 0 0,0
05.07.2020 20:00:00 23,2 16,4 22,8 25,4 25,5 19,8 13 7 42 23 WNW 1009,1 68 0 0,0
05.07.2020 19:00:00 25,8 14,9 25,6 27,2 25,7 19,8 17 9 38 21 SW 1008,6 75 7 0,0
05.07.2020 18:00:00 26,3 15,0 26,8 28,4 25,7 19,8 20 11 44 24 SW 1008,7 75 3 0,0
05.07.2020 17:00:00 26,6 14,5 27,5 30,1 25,6 19,8 22 12 45 24 SW 1009,0 71 16 0,0
05.07.2020 16:00:00 26,4 14,5 28,5 30,9 25,0 19,8 24 13 48 26 SW 1009,6 64 31 0,0
05.07.2020 15:00:00 25,8 15,3 28,2 31,4 24,3 19,8 22 12 50 27 SW 1010,1 47 37 0,0
05.07.2020 14:00:00 25,3 15,0 27,9 28,2 23,9 19,8 26 14 49 26 WSW 1010,6 75 5 0,0
05.07.2020 13:00:00 24,0 15,0 25,4 26,8 23,6 19,8 20 11 44 24 SW 1010,7 60 4 0,0
05.07.2020 12:00:00 23,6 14,6 24,3 26,8 23,3 19,8 24 13 49 26 WSW 1010,8 63 0 0,0
05.07.2020 11:00:00 23,6 14,9 24,6 26,9 22,8 19,8 22 12 42 23 SW 1011,1 64 16 0,0
05.07.2020 10:00:00 23,5 14,9 26,0 26,9 22,2 19,8 23 12 44 24 SW 1011,1 74 33 0,0
05.07.2020 09:00:00 22,9 14,6 25,0 24,8 21,8 19,8 23 12 40 21 SW 1011,2 59 28 0,0
05.07.2020 08:00:00 21,1 14,1 21,7 21,6 21,8 19,8 17 9 31 17 SW 1011,5 75 0 0,0
05.07.2020 07:00:00 20,4 13,8 20,7 20,4 22,0 19,8 16 9 30 16 SSW 1011,7 72 3 0,0
05.07.2020 06:00:00 19,4 13,6 17,3 20,3 22,2 19,8 13 7 27 15 SW 1012,0 33 0 0,0
05.07.2020 05:00:00 20,5 12,7 19,3 20,8 22,5 19,8 13 7 26 14 SW 1011,8 47 0 0,0
05.07.2020 04:00:00 20,7 12,1 20,3 21,1 22,7 19,7 11 6 22 12 SW 1011,9 66 0 0,0
05.07.2020 03:00:00 20,6 12,1 19,9 21,3 22,9 19,7 7 4 16 9 SW 1012,4 75 0 0,0
05.07.2020 02:00:00 20,9 11,8 20,3 21,5 23,2 19,7 8 4 16 9 SW 1012,8 70 0 0,0
05.07.2020 01:00:00 20,8 12,2 20,1 21,8 23,6 19,7 6 4 16 9 SW 1012,8 75 0 0,0
05.07.2020 00:00:00 20,9 12,5 20,4 22,3 23,9 19,7 7 4 14 8 SW 1013,3 57 0 0,0
04.07.2020 23:00:00 20,7 12,5 20,4 22,7 24,4 19,7 7 4 14 8 WSW 1013,4 57 0 0,0
04.07.2020 22:00:00 20,5 12,8 20,1 23,2 24,9 19,7 6 3 20 11 SW 1013,4 70 0 0,0
04.07.2020 21:00:00 20,6 13,2 20,3 24,1 25,5 19,7 16 8 37 20 SSW 1013,6 75 0 0,0
04.07.2020 20:00:00 22,9 10,8 23,0 26,3 25,8 19,7 21 11 43 23 WSW 1013,4 64 0 0,0
04.07.2020 19:00:00 25,1 9,2 25,7 28,7 26,0 19,7 19 11 41 22 WSW 1012,9 39 10 0,0
04.07.2020 18:00:00 25,0 9,3 25,9 29,9 26,0 19,7 18 10 40 21 SW 1013,0 69 9 0,0
04.07.2020 17:00:00 25,0 8,7 26,8 31,1 25,8 19,7 16 9 39 21 SW 1013,8 62 16 0,0
04.07.2020 16:00:00 25,0 9,1 28,1 31,9 25,3 19,8 17 9 43 23 SW 1014,0 65 18 0,0
04.07.2020 15:00:00 24,7 9,4 27,8 33,3 24,5 19,8 21 11 44 24 SW 1014,4 58 50 0,0
04.07.2020 14:00:00 25,4 9,5 30,6 31,8 23,5 19,8 20 11 42 23 W 1014,7 75 55 0,0
04.07.2020 13:00:00 23,1 9,2 26,7 28,9 22,9 19,8 19 10 35 19 WSW 1015,5 66 14 0,0
04.07.2020 12:00:00 22,8 9,9 26,5 28,1 22,1 19,8 17 9 40 22 SW 1015,9 75 32 0,0
04.07.2020 11:00:00 22,2 9,0 25,2 27,3 21,3 19,8 17 9 34 18 SW 1016,2 44 46 0,0
04.07.2020 10:00:00 21,5 9,7 24,4 25,4 20,5 19,8 15 8 32 17 WSW 1016,3 57 60 0,0
04.07.2020 09:00:00 20,5 11,4 23,4 22,8 20,0 19,8 12 7 27 15 SW 1016,4 60 60 0,0
04.07.2020 08:00:00 18,0 12,0 20,2 19,8 19,7 19,8 7 4 15 8 SSW 1016,5 51 60 0,0
04.07.2020 07:00:00 15,6 11,2 16,6 17,4 19,9 19,8 3 2 9 5 SW 1016,6 39 60 0,0
04.07.2020 06:00:00 14,5 11,1 13,6 15,8 20,2 19,8 5 3 8 4 WSW 1016,5 39 5 0,0
04.07.2020 05:00:00 13,1 11,0 10,4 15,9 20,7 19,7 3 2 6 4 SSW 1016,5 43 0 0,0
04.07.2020 04:00:00 12,5 10,8 10,5 16,5 21,2 19,7 4 2 5 3 SSE 1016,9 30 0 0,0
04.07.2020 03:00:00 13,0 10,8 11,5 17,1 21,7 19,7 0 0 3 2 N 1017,1 27 0 0,0
04.07.2020 02:00:00 13,5 11,0 11,8 17,8 22,3 19,7 3 2 4 2 WNW 1017,4 52 0 0,0
04.07.2020 01:00:00 14,5 10,9 12,6 18,6 22,9 19,7 3 1 6 4 WNW 1017,4 58 0 0,0
04.07.2020 00:00:00 16,4 11,4 12,9 19,7 23,6 19,7 3 2 6 4 S 1017,3 51 0 0,0
03.07.2020 23:00:00 17,5 11,2 14,8 20,9 24,2 19,7 6 3 10 6 NW 1017,1 63 0 0,0
03.07.2020 22:00:00 18,2 11,7 15,4 22,5 24,9 19,7 7 4 10 6 NNW 1016,8 63 0 0,0
03.07.2020 21:00:00 20,9 10,6 19,6 24,7 25,4 19,7 6 3 17 9 NW 1016,0 69 47 0,0
03.07.2020 20:00:00 22,7 9,8 23,8 27,1 25,6 19,7 9 5 24 13 WNW 1015,8 73 51 0,0
03.07.2020 19:00:00 23,3 9,5 25,4 29,0 25,6 19,7 12 6 26 14 W 1015,5 57 49 0,0
03.07.2020 18:00:00 22,9 9,2 25,9 29,8 25,3 19,7 14 8 27 14 W 1015,8 56 50 0,0
03.07.2020 17:00:00 23,2 9,6 27,5 30,4 24,8 19,7 11 6 31 17 W 1015,7 56 41 0,0
03.07.2020 16:00:00 22,4 8,7 24,8 30,3 24,2 19,8 15 8 29 15 WSW 1016,0 75 26 0,0
03.07.2020 15:00:00 22,3 9,5 25,1 30,3 23,5 19,8 13 7 29 16 WSW 1016,0 70 44 0,0
03.07.2020 14:00:00 21,0 10,7 25,2 27,4 22,9 19,8 12 7 31 17 W 1016,3 64 19 0,0
03.07.2020 13:00:00 19,8 10,7 22,7 25,3 22,5 19,8 11 6 25 13 WNW 1016,5 44 6 0,0
03.07.2020 12:00:00 20,5 9,6 24,2 27,0 22,0 19,8 11 6 29 16 WSW 1016,2 58 19 0,0
03.07.2020 11:00:00 19,0 10,2 22,1 25,0 21,5 19,8 12 6 30 16 W 1016,0 52 29 0,0
03.07.2020 10:00:00 19,1 10,3 23,0 24,6 20,8 19,8 11 6 28 15 WNW 1015,9 75 54 0,0
03.07.2020 09:00:00 18,0 11,2 21,5 22,3 20,4 19,8 14 7 24 13 W 1015,6 63 59 0,0
03.07.2020 08:00:00 17,0 12,2 19,7 19,7 20,3 19,8 10 5 25 14 W 1015,1 59 59 0,0
03.07.2020 07:00:00 15,3 12,6 16,2 17,7 20,5 19,8 9 5 17 9 W 1014,7 34 34 0,0
03.07.2020 06:00:00 14,7 12,8 14,0 17,6 20,9 19,8 8 4 13 7 W 1014,3 36 0 0,0
03.07.2020 05:00:00 15,5 12,7 14,6 18,1 21,2 19,7 9 5 16 9 W 1013,9 47 0 0,0
03.07.2020 04:00:00 15,9 12,9 15,7 18,5 21,6 19,7 7 4 15 8 W 1013,2 59 0 0,0
03.07.2020 03:00:00 16,4 13,0 15,9 18,9 21,9 19,7 8 5 19 11 W 1012,9 59 0 0,0
03.07.2020 02:00:00 16,6 13,4 16,3 19,3 22,4 19,7 7 4 14 7 WNW 1012,6 57 0 0,0
03.07.2020 01:00:00 16,8 12,9 15,2 19,5 22,9 19,7 6 4 16 9 W 1012,0 56 0 0,0
03.07.2020 00:00:00 18,1 13,1 17,2 20,8 23,4 19,7 7 4 13 7 WNW 1011,8 65 0 0,0
02.07.2020 23:00:00 19,0 13,5 18,5 21,7 23,9 19,7 4 2 11 6 W 1011,6 65 0 0,0
02.07.2020 22:00:00 19,7 11,5 18,6 22,3 24,5 19,7 2 1 21 11 WNW 1010,7 75 0 0,0
02.07.2020 21:00:00 20,6 12,4 18,2 24,0 25,0 19,7 11 6 23 12 NW 1010,6 31 0 0,0
02.07.2020 20:00:00 22,3 12,0 22,5 26,0 25,4 19,8 9 5 21 11 NNW 1009,8 75 0 0,0
02.07.2020 19:00:00 23,9 11,0 25,4 28,7 25,3 19,8 10 5 26 14 NNW 1009,3 75 49 0,0
02.07.2020 18:00:00 25,0 11,1 29,2 29,4 25,0 19,8 11 6 31 17 NW 1009,3 59 57 0,0
02.07.2020 17:00:00 24,0 12,6 28,4 28,9 24,6 19,8 14 7 25 14 NNW 1009,5 41 33 0,0
02.07.2020 16:00:00 24,0 12,4 27,1 30,2 24,0 19,8 10 5 23 13 WNW 1009,5 60 42 0,0
02.07.2020 15:00:00 23,4 13,2 28,4 28,5 23,2 19,8 13 7 27 15 NNW 1009,6 75 42 0,0

tt = Température de l'air
td = dewpoint
tt 5cm = Température de l'air 5cm
tt -5cm = Température de l'air -5cm
tt -20cm = Température de l'air -20cm
tt -100cm = Température de l'air -100cm
ff = Vitesse du vent
fx = gusts
dd = Direction du vent
ppp = reduced air pressure
vv = visibility
sd = Ensoleillement
rr = Quantités de précipitations

stations d'obs. à proximité